When you browse on this site, cookies collect data to enhance your experience and personalize the content and advertising you see.
Visit our Privacy Policy to learn more. By continuing to use the site, you agree to this use of cookies and data.
  • In Hungary
  • List of Countries
  • For 7 days
  • Water Temperature
  • Weather Map
  • News
  • Weather Widgets
  • user-avatar
    Login

    Hourly Weather Baranowce

    Today, 19 September, Thursday

    Time Temperature Precipitation Wind Pressure Humidity
    00:00 +5°C° 0 mm 4 mps 747 mmHg 88%
    01:00 +5°C° 0 mm 4 mps 747 mmHg 89%
    02:00 +5°C° 0 mm 4 mps 748 mmHg 91%
    03:00 +4°C° 0 mm 4 mps 748 mmHg 91%
    04:00 +4°C° 0 mm 4 mps 748 mmHg 91%
    05:00 +4°C° 0 mm 4 mps 748 mmHg 91%
    06:00 +5°C° 0 mm 4 mps 749 mmHg 89%
    07:00 +6°C° 0 mm 5 mps 749 mmHg 87%
    08:00 +6°C° 0 mm 5 mps 749 mmHg 86%
    09:00 +8°C° 0.1 mm 5 mps 749 mmHg 78%
    10:00 +10°C° 0.1 mm 5 mps 750 mmHg 71%
    11:00 +12°C° 0.1 mm 5 mps 750 mmHg 64%
    12:00 +13°C° 0.3 mm 5 mps 750 mmHg 61%
    13:00 +13°C° 0.3 mm 5 mps 750 mmHg 58%
    14:00 +14°C° 0.3 mm 6 mps 750 mmHg 56%
    15:00 +14°C° 0.2 mm 5 mps 750 mmHg 58%
    16:00 +13°C° 0.2 mm 5 mps 750 mmHg 60%
    17:00 +13°C° 0.2 mm 4 mps 750 mmHg 62%
    18:00 +11°C° 0.2 mm 4 mps 750 mmHg 69%
    19:00 +10°C° 0.2 mm 4 mps 750 mmHg 75%
    20:00 +8°C° 0.2 mm 3 mps 750 mmHg 82%
    21:00 +8°C° 0 mm 3 mps 751 mmHg 84%
    22:00 +6°C° 0 mm 4 mps 751 mmHg 87%
    23:00 +5°C° 0 mm 4 mps 751 mmHg 89%

    Tomorrow, 20 September, Friday

    Time Temperature Precipitation Wind Pressure Humidity
    00:00 +5°C° 0 mm 4 mps 751 mmHg 91%
    01:00 +5°C° 0 mm 4 mps 752 mmHg 93%
    02:00 +5°C° 0 mm 4 mps 752 mmHg 95%
    03:00 +4°C° 0 mm 4 mps 752 mmHg 95%
    04:00 +4°C° 0 mm 4 mps 752 mmHg 95%
    05:00 +4°C° 0 mm 4 mps 752 mmHg 95%
    06:00 +4°C° 0 mm 4 mps 752 mmHg 91%
    07:00 +5°C° 0 mm 4 mps 753 mmHg 87%
    08:00 +5°C° 0 mm 4 mps 753 mmHg 83%
    09:00 +7°C° 0 mm 4 mps 753 mmHg 76%
    10:00 +8°C° 0 mm 5 mps 753 mmHg 69%
    11:00 +10°C° 0 mm 5 mps 753 mmHg 61%
    12:00 +10°C° 0.3 mm 5 mps 753 mmHg 60%
    13:00 +12°C° 0.3 mm 5 mps 753 mmHg 59%
    14:00 +12°C° 0.3 mm 5 mps 753 mmHg 57%
    15:00 +12°C° 0.2 mm 4 mps 753 mmHg 60%
    16:00 +12°C° 0.2 mm 4 mps 752 mmHg 62%
    17:00 +11°C° 0.2 mm 3 mps 752 mmHg 65%
    18:00 +10°C° 0 mm 3 mps 753 mmHg 70%
    19:00 +9°C° 0 mm 2 mps 753 mmHg 74%
    20:00 +8°C° 0 mm 1 mps 753 mmHg 79%
    21:00 +8°C° 0 mm 1 mps 753 mmHg 80%
    22:00 +7°C° 0 mm 2 mps 753 mmHg 81%
    23:00 +6°C° 0 mm 2 mps 753 mmHg 81%

    Day after tomorrow, 21 September, Saturday

    Time Temperature Precipitation Wind Pressure Humidity
    00:00 +6°C° 0 mm 2 mps 753 mmHg 81%
    01:00 +5°C° 0 mm 3 mps 753 mmHg 81%
    02:00 +5°C° 0 mm 3 mps 752 mmHg 80%
    03:00 +6°C° 0 mm 4 mps 752 mmHg 81%
    04:00 +6°C° 0 mm 4 mps 752 mmHg 82%
    05:00 +7°C° 0 mm 5 mps 752 mmHg 83%
    06:00 +7°C° 0 mm 5 mps 751 mmHg 84%
    07:00 +8°C° 0 mm 5 mps 751 mmHg 86%
    08:00 +8°C° 0 mm 6 mps 751 mmHg 87%
    09:00 +10°C° 0 mm 6 mps 752 mmHg 84%
    10:00 +11°C° 0 mm 6 mps 752 mmHg 81%
    11:00 +13°C° 0 mm 6 mps 752 mmHg 77%
    12:00 +14°C° 0 mm 6 mps 752 mmHg 75%
    13:00 +14°C° 0 mm 6 mps 751 mmHg 74%
    14:00 +15°C° 0 mm 6 mps 751 mmHg 72%
    15:00 +14°C° 0 mm 6 mps 751 mmHg 73%
    16:00 +14°C° 0 mm 5 mps 751 mmHg 73%
    17:00 +14°C° 0 mm 4 mps 751 mmHg 74%
    18:00 +13°C° 0 mm 4 mps 751 mmHg 78%
    19:00 +12°C° 0 mm 3 mps 751 mmHg 83%
    20:00 +12°C° 0 mm 2 mps 751 mmHg 87%
    21:00 +10°C° 0 mm 3 mps 751 mmHg 89%
    22:00 +10°C° 0 mm 3 mps 751 mmHg 91%
    23:00 +9°C° 0 mm 3 mps 751 mmHg 93%

    22 September, Sunday

    Time Temperature Precipitation Wind Pressure Humidity
    00:00 +9°C° 0 mm 3 mps 750 mmHg 93%
    01:00 +9°C° 0 mm 3 mps 750 mmHg 94%
    02:00 +9°C° 0 mm 3 mps 750 mmHg 94%
    03:00 +9°C° 0 mm 3 mps 750 mmHg 94%
    04:00 +9°C° 0 mm 3 mps 750 mmHg 95%
    05:00 +9°C° 0 mm 3 mps 750 mmHg 95%
    06:00 +9°C° 0 mm 3 mps 750 mmHg 92%
    07:00 +10°C° 0 mm 3 mps 750 mmHg 88%
    08:00 +11°C° 0 mm 4 mps 750 mmHg 85%
    09:00 +13°C° 0 mm 3 mps 750 mmHg 78%
    10:00 +16°C° 0 mm 3 mps 750 mmHg 71%
    11:00 +17°C° 0 mm 3 mps 751 mmHg 64%
    12:00 +18°C° 0 mm 3 mps 750 mmHg 61%
    13:00 +19°C° 0 mm 2 mps 750 mmHg 58%
    14:00 +20°C° 0 mm 2 mps 750 mmHg 54%
    15:00 +20°C° 0 mm 2 mps 750 mmHg 57%
    16:00 +20°C° 0 mm 1 mps 750 mmHg 60%
    17:00 +20°C° 0 mm 1 mps 750 mmHg 62%
    18:00 +17°C° 0 mm 2 mps 749 mmHg 71%
    19:00 +15°C° 0 mm 2 mps 749 mmHg 80%
    20:00 +12°C° 0 mm 3 mps 749 mmHg 88%
    21:00 +11°C° 0 mm 3 mps 749 mmHg 90%
    22:00 +11°C° 0 mm 3 mps 749 mmHg 91%
    23:00 +10°C° 0 mm 4 mps 749 mmHg 93%

    23 September, Monday

    Time Temperature Precipitation Wind Pressure Humidity
    00:00 +10°C° 0 mm 4 mps 749 mmHg 93%
    01:00 +10°C° 0 mm 4 mps 749 mmHg 93%
    02:00 +10°C° 0 mm 4 mps 749 mmHg 94%
    03:00 +10°C° 0 mm 4 mps 748 mmHg 94%
    04:00 +10°C° 0 mm 4 mps 748 mmHg 95%
    05:00 +8°C° 0 mm 4 mps 747 mmHg 95%
    06:00 +10°C° 0 mm 4 mps 747 mmHg 91%
    07:00 +11°C° 0 mm 4 mps 746 mmHg 87%
    08:00 +10°C° 0 mm 5 mps 746 mmHg 82%
    09:00 +13°C° 0 mm 5 mps 745 mmHg 74%
    10:00 +14°C° 0 mm 5 mps 745 mmHg 65%
    11:00 +16°C° 0 mm 5 mps 745 mmHg 57%
    12:00 +18°C° 0 mm 4 mps 744 mmHg 53%
    13:00 +19°C° 0 mm 4 mps 744 mmHg 49%
    14:00 +20°C° 0 mm 3 mps 743 mmHg 45%
    15:00 +20°C° 0 mm 3 mps 742 mmHg 48%
    16:00 +20°C° 0 mm 2 mps 742 mmHg 51%
    17:00 +20°C° 0 mm 2 mps 742 mmHg 54%
    18:00 +18°C° 0 mm 2 mps 741 mmHg 57%
    19:00 +17°C° 0 mm 2 mps 741 mmHg 60%
    20:00 +15°C° 0 mm 2 mps 741 mmHg 62%
    21:00 +15°C° 0 mm 2 mps 741 mmHg 64%
    22:00 +14°C° 0 mm 3 mps 741 mmHg 65%
    23:00 +14°C° 0 mm 3 mps 741 mmHg 66%

    24 September, Tuesday

    Time Temperature Precipitation Wind Pressure Humidity
    00:00 +14°C° 0 mm 3 mps 741 mmHg 70%
    01:00 +14°C° 0 mm 4 mps 741 mmHg 73%
    02:00 +13°C° 0 mm 5 mps 741 mmHg 76%
    03:00 +13°C° 0.6 mm 4 mps 741 mmHg 83%
    04:00 +12°C° 0.6 mm 3 mps 740 mmHg 89%
    05:00 +13°C° 0.6 mm 2 mps 740 mmHg 95%
    06:00 +12°C° 1.2 mm 4 mps 740 mmHg 95%
    07:00 +12°C° 1.2 mm 5 mps 740 mmHg 94%
    08:00 +13°C° 1.2 mm 6 mps 740 mmHg 93%
    09:00 +11°C° 0.5 mm 6 mps 741 mmHg 92%
    10:00 +11°C° 0.5 mm 6 mps 741 mmHg 92%
    11:00 +11°C° 0.5 mm 6 mps 741 mmHg 91%
    12:00 +11°C° 0.1 mm 6 mps 741 mmHg 91%
    13:00 +11°C° 0.1 mm 6 mps 741 mmHg 91%
    14:00 +11°C° 0.1 mm 6 mps 741 mmHg 91%
    15:00 +12°C° 0.4 mm 5 mps 741 mmHg 91%
    16:00 +12°C° 0.4 mm 5 mps 741 mmHg 92%
    17:00 +12°C° 0.4 mm 4 mps 741 mmHg 92%
    18:00 +12°C° 0.1 mm 4 mps 742 mmHg 93%
    19:00 +12°C° 0.1 mm 3 mps 742 mmHg 93%
    20:00 +12°C° 0.1 mm 3 mps 742 mmHg 94%
    21:00 +11°C° 0 mm 3 mps 742 mmHg 95%
    22:00 +11°C° 0 mm 3 mps 743 mmHg 95%
    23:00 +10°C° 0 mm 3 mps 743 mmHg 96%
    Show more